Time,TemperatureF,DewpointF,PressureIn,WindDirection,WindDirectionDegrees,WindSpeedMPH,WindSpeedGustMPH,Humidity,HourlyPrecipIn,Conditions,Clouds,dailyrainin,SoftwareType,DateUTC
2013-02-23 00:00:00,27.5,25.8,29.82,SE,134,2.0,3.0,93,0.00,,,0.00,VWS V14.01,2013-02-23 05:00:00,
2013-02-23 00:05:00,27.5,25.8,29.82,SE,134,2.0,2.0,93,0.00,,,0.00,VWS V14.01,2013-02-23 05:05:00,
2013-02-23 00:10:00,27.4,25.6,29.82,SE,135,2.0,2.0,93,0.00,,,0.00,VWS V14.01,2013-02-23 05:10:00,
2013-02-23 00:15:00,27.4,25.6,29.81,SE,125,2.0,2.0,93,0.00,,,0.00,VWS V14.01,2013-02-23 05:15:00,
2013-02-23 00:20:00,27.3,25.5,29.81,SE,137,1.0,1.0,93,0.00,,OVC080,0.00,VWS V14.01,2013-02-23 05:20:00,
2013-02-23 00:25:00,27.3,25.5,29.81,SE,136,1.0,2.0,93,0.00,,OVC080,0.00,VWS V14.01,2013-02-23 05:25:00,
2013-02-23 00:30:00,27.2,25.5,29.82,SE,136,0.0,1.0,93,0.00,,OVC080,0.00,VWS V14.01,2013-02-23 05:30:00,
2013-02-23 00:35:00,27.2,25.5,29.81,SE,136,1.0,2.0,93,0.00,,OVC080,0.00,VWS V14.01,2013-02-23 05:35:00,
2013-02-23 00:40:00,27.1,25.4,29.81,SE,136,0.0,1.0,93,0.00,,OVC080,0.00,VWS V14.01,2013-02-23 05:40:00,
2013-02-23 00:45:00,27.1,25.4,29.81,SE,136,0.0,1.0,93,0.00,,OVC080,0.00,VWS V14.01,2013-02-23 05:45:00,
2013-02-23 00:50:00,27.0,25.2,29.81,SE,136,1.0,1.0,93,0.00,,OVC080,0.00,VWS V14.01,2013-02-23 05:50:00,
2013-02-23 00:55:00,27.0,25.2,29.81,SE,136,0.0,1.0,93,0.00,,OVC080,0.00,VWS V14.01,2013-02-23 05:55:00,
2013-02-23 01:00:00,27.1,25.4,29.81,SE,136,2.0,2.0,93,0.00,,OVC080,0.00,VWS V14.01,2013-02-23 06:00:00,
2013-02-23 01:05:00,27.0,25.2,29.81,SE,136,2.0,2.0,93,0.00,,,0.00,VWS V14.01,2013-02-23 06:05:00,
2013-02-23 01:10:00,27.0,25.2,29.81,SE,136,1.0,2.0,93,0.00,,,0.00,VWS V14.01,2013-02-23 06:10:00,
2013-02-23 01:16:00,27.0,25.2,29.80,SE,136,2.0,2.0,93,0.00,,,0.00,VWS V14.01,2013-02-23 06:16:00,
2013-02-23 01:21:00,27.0,25.2,29.80,SE,136,1.0,2.0,93,0.00,,,0.00,VWS V14.01,2013-02-23 06:21:00,
2013-02-23 01:26:00,27.0,25.2,29.80,SE,136,1.0,2.0,93,0.00,,,0.00,VWS V14.01,2013-02-23 06:26:00,
2013-02-23 01:31:00,27.0,25.2,29.80,SE,136,2.0,2.0,93,0.00,,,0.00,VWS V14.01,2013-02-23 06:31:00,
2013-02-23 01:36:00,26.9,25.4,29.80,SE,136,2.0,3.0,94,0.00,,,0.00,VWS V14.01,2013-02-23 06:36:00,
2013-02-23 01:41:00,26.9,25.4,29.80,SE,139,2.0,2.0,94,0.00,,,0.00,VWS V14.01,2013-02-23 06:41:00,
2013-02-23 01:46:00,26.9,25.4,29.80,SE,137,1.0,4.0,94,0.00,,,0.00,VWS V14.01,2013-02-23 06:46:00,
2013-02-23 01:51:00,26.9,25.1,29.80,SE,141,0.0,1.0,93,0.00,,,0.00,VWS V14.01,2013-02-23 06:51:00,
2013-02-23 01:56:00,26.9,25.1,29.80,SSE,159,1.0,3.0,93,0.00,,,0.00,VWS V14.01,2013-02-23 06:56:00,
2013-02-23 02:01:00,26.9,25.1,29.79,SSE,159,2.0,2.0,93,0.00,,,0.00,VWS V14.01,2013-02-23 07:01:00,
2013-02-23 02:06:00,26.9,25.1,29.79,SSE,159,1.0,2.0,93,0.00,,,0.00,VWS V14.01,2013-02-23 07:06:00,
2013-02-23 02:11:00,26.8,25.0,29.79,SSE,159,0.0,1.0,93,0.00,,,0.00,VWS V14.01,2013-02-23 07:11:00,
2013-02-23 02:16:00,26.8,25.0,29.79,SSE,159,1.0,1.0,93,0.00,,,0.00,VWS V14.01,2013-02-23 07:16:00,
2013-02-23 02:21:00,26.7,25.2,29.79,SSE,159,0.0,1.0,94,0.00,,,0.00,VWS V14.01,2013-02-23 07:21:00,
2013-02-23 02:26:00,26.7,25.2,29.79,SSE,159,0.0,1.0,94,0.00,,,0.00,VWS V14.01,2013-02-23 07:26:00,
2013-02-23 02:31:00,26.6,25.1,29.79,SSE,159,1.0,1.0,94,0.00,,,0.00,VWS V14.01,2013-02-23 07:31:00,
2013-02-23 02:36:00,26.5,24.8,29.79,SSE,159,1.0,1.0,93,0.00,,,0.00,VWS V14.01,2013-02-23 07:36:00,
2013-02-23 02:41:00,26.5,25.0,29.79,SSE,159,0.0,1.0,94,0.00,,,0.00,VWS V14.01,2013-02-23 07:41:00,
2013-02-23 02:46:00,26.4,24.9,29.79,SSE,159,1.0,1.0,94,0.00,,,0.00,VWS V14.01,2013-02-23 07:46:00,
2013-02-23 02:51:00,26.3,24.8,29.79,SSE,159,0.0,1.0,94,0.00,,,0.00,VWS V14.01,2013-02-23 07:51:00,
2013-02-23 02:56:00,26.3,24.8,29.79,SSE,159,1.0,1.0,94,0.00,,,0.00,VWS V14.01,2013-02-23 07:56:00,
2013-02-23 03:01:00,26.2,24.7,29.79,SSE,159,2.0,2.0,94,0.00,,,0.00,VWS V14.01,2013-02-23 08:01:00,
2013-02-23 03:06:00,26.3,24.8,29.79,SSE,159,2.0,2.0,94,0.00,,,0.00,VWS V14.01,2013-02-23 08:06:00,
2013-02-23 03:11:00,26.3,24.8,29.79,SSE,159,1.0,1.0,94,0.00,,,0.00,VWS V14.01,2013-02-23 08:11:00,
2013-02-23 03:16:00,26.3,24.8,29.78,SSE,159,1.0,1.0,94,0.00,,,0.00,VWS V14.01,2013-02-23 08:16:00,
2013-02-23 03:21:00,26.2,24.7,29.78,SSE,159,2.0,2.0,94,0.00,,,0.00,VWS V14.01,2013-02-23 08:21:00,
2013-02-23 03:26:00,26.3,24.8,29.78,SSE,159,1.0,1.0,94,0.00,,,0.00,VWS V14.01,2013-02-23 08:26:00,
2013-02-23 03:31:00,26.3,24.8,29.78,SSE,159,1.0,1.0,94,0.00,,,0.00,VWS V14.01,2013-02-23 08:31:00,
2013-02-23 03:36:00,26.3,24.8,29.78,SSE,159,1.0,1.0,94,0.00,,,0.00,VWS V14.01,2013-02-23 08:36:00,
2013-02-23 03:41:00,26.2,24.7,29.78,SSE,159,1.0,1.0,94,0.00,,,0.00,VWS V14.01,2013-02-23 08:41:00,
2013-02-23 03:46:00,26.3,24.8,29.78,SSE,159,1.0,1.0,94,0.00,,,0.00,VWS V14.01,2013-02-23 08:46:00,
2013-02-23 03:51:00,26.2,24.7,29.78,SSE,159,1.0,2.0,94,0.00,,,0.00,VWS V14.01,2013-02-23 08:51:00,
2013-02-23 03:56:00,26.3,24.8,29.78,SSE,159,0.0,2.0,94,0.00,,,0.00,VWS V14.01,2013-02-23 08:56:00,
2013-02-23 04:01:00,26.3,24.8,29.78,SSE,159,0.0,1.0,94,0.00,,,0.00,VWS V14.01,2013-02-23 09:01:00,
2013-02-23 04:06:00,26.3,24.8,29.77,SSE,159,1.0,2.0,94,0.00,,,0.00,VWS V14.01,2013-02-23 09:06:00,
2013-02-23 04:11:00,26.3,24.8,29.77,SSE,159,0.0,1.0,94,0.00,,,0.00,VWS V14.01,2013-02-23 09:11:00,
2013-02-23 04:16:00,26.2,24.7,29.77,SSE,159,1.0,1.0,94,0.00,,,0.00,VWS V14.01,2013-02-23 09:16:00,
2013-02-23 04:21:00,26.2,24.7,29.77,SSE,159,1.0,2.0,94,0.00,,,0.00,VWS V14.01,2013-02-23 09:21:00,
2013-02-23 04:26:00,26.2,24.7,29.77,SSE,159,0.0,1.0,94,0.00,,,0.00,VWS V14.01,2013-02-23 09:26:00,
2013-02-23 04:31:00,26.2,24.7,29.77,SSE,159,1.0,2.0,94,0.00,,,0.00,VWS V14.01,2013-02-23 09:31:00,
2013-02-23 04:36:00,26.2,24.7,29.76,SSE,159,1.0,2.0,94,0.00,,,0.00,VWS V14.01,2013-02-23 09:36:00,
2013-02-23 04:41:00,26.2,24.7,29.76,SSE,159,1.0,1.0,94,0.00,,,0.00,VWS V14.01,2013-02-23 09:41:00,
2013-02-23 04:46:00,26.2,24.7,29.76,SSE,159,1.0,2.0,94,0.00,,,0.00,VWS V14.01,2013-02-23 09:46:00,
2013-02-23 04:51:00,26.2,24.7,29.76,SSE,159,2.0,2.0,94,0.00,,,0.00,VWS V14.01,2013-02-23 09:51:00,
2013-02-23 04:57:00,26.2,24.5,29.76,SSE,159,1.0,2.0,93,0.00,,,0.00,VWS V14.01,2013-02-23 09:57:00,
2013-02-23 05:02:00,26.1,24.4,29.76,SSE,159,1.0,2.0,93,0.00,,,0.00,VWS V14.01,2013-02-23 10:02:00,
2013-02-23 05:07:00,25.9,24.2,29.75,SSE,159,2.0,2.0,93,0.00,,OVC080,0.00,VWS V14.01,2013-02-23 10:07:00,
2013-02-23 05:12:00,25.6,24.1,29.75,SSE,159,1.0,1.0,94,0.00,,OVC080,0.00,VWS V14.01,2013-02-23 10:12:00,
2013-02-23 05:17:00,25.6,24.1,29.76,SSE,159,1.0,2.0,94,0.00,,,0.00,VWS V14.01,2013-02-23 10:17:00,
2013-02-23 05:22:00,25.6,24.1,29.76,SSE,159,1.0,1.0,94,0.00,,,0.00,VWS V14.01,2013-02-23 10:22:00,
2013-02-23 05:27:00,25.7,24.2,29.76,SSE,159,1.0,2.0,94,0.00,,,0.00,VWS V14.01,2013-02-23 10:27:00,
2013-02-23 05:32:00,25.7,24.2,29.76,SSE,159,1.0,2.0,94,0.00,,,0.00,VWS V14.01,2013-02-23 10:32:00,
2013-02-23 05:37:00,25.7,24.2,29.76,SSE,159,1.0,2.0,94,0.00,,,0.00,VWS V14.01,2013-02-23 10:37:00,
2013-02-23 05:42:00,25.7,24.2,29.76,SSE,159,1.0,2.0,94,0.00,,,0.00,VWS V14.01,2013-02-23 10:42:00,
2013-02-23 05:47:00,25.8,24.3,29.76,SSE,159,1.0,1.0,94,0.00,,,0.00,VWS V14.01,2013-02-23 10:47:00,
2013-02-23 05:52:00,25.8,24.3,29.76,SSE,159,1.0,3.0,94,0.00,,,0.00,VWS V14.01,2013-02-23 10:52:00,
2013-02-23 05:57:00,25.9,24.4,29.76,SSE,159,1.0,2.0,94,0.00,,,0.00,VWS V14.01,2013-02-23 10:57:00,
2013-02-23 06:02:00,25.9,24.4,29.76,SSE,159,1.0,2.0,94,0.00,,,0.00,VWS V14.01,2013-02-23 11:02:00,
2013-02-23 06:07:00,26.0,24.5,29.76,SSE,159,1.0,2.0,94,0.00,,,0.00,VWS V14.01,2013-02-23 11:07:00,
2013-02-23 06:12:00,26.0,24.5,29.76,SSE,159,1.0,2.0,94,0.00,,,0.00,VWS V14.01,2013-02-23 11:12:00,
2013-02-23 06:17:00,26.0,24.5,29.76,SSE,159,1.0,1.0,94,0.00,,,0.00,VWS V14.01,2013-02-23 11:17:00,
2013-02-23 06:22:00,26.0,24.5,29.76,SSE,159,1.0,2.0,94,0.00,,,0.00,VWS V14.01,2013-02-23 11:22:00,
2013-02-23 06:27:00,26.0,24.5,29.76,SSE,159,1.0,1.0,94,0.00,,,0.00,VWS V14.01,2013-02-23 11:27:00,
2013-02-23 06:32:00,26.0,24.5,29.76,SSE,159,1.0,2.0,94,0.00,,,0.00,VWS V14.01,2013-02-23 11:32:00,
2013-02-23 06:37:00,26.0,24.5,29.76,SSE,159,1.0,2.0,94,0.00,,,0.00,VWS V14.01,2013-02-23 11:37:00,
2013-02-23 06:42:00,26.0,24.5,29.76,SSE,159,0.0,1.0,94,0.00,,,0.00,VWS V14.01,2013-02-23 11:42:00,
2013-02-23 06:47:00,25.9,24.4,29.76,SSE,159,1.0,1.0,94,0.00,,,0.00,VWS V14.01,2013-02-23 11:47:00,
2013-02-23 06:52:00,25.8,24.3,29.76,SSE,159,1.0,2.0,94,0.00,,,0.00,VWS V14.01,2013-02-23 11:52:00,
2013-02-23 06:57:00,25.8,24.3,29.76,SSE,159,1.0,2.0,94,0.00,,,0.00,VWS V14.01,2013-02-23 11:57:00,
2013-02-23 07:02:00,25.7,24.2,29.76,SSE,159,0.0,2.0,94,0.00,,,0.00,VWS V14.01,2013-02-23 12:02:00,
2013-02-23 07:07:00,25.6,24.1,29.76,SSE,159,1.0,1.0,94,0.00,,,0.00,VWS V14.01,2013-02-23 12:07:00,
2013-02-23 07:12:00,25.6,24.1,29.76,SSE,159,1.0,2.0,94,0.00,,,0.00,VWS V14.01,2013-02-23 12:12:00,
2013-02-23 07:17:00,25.6,24.1,29.76,SSE,159,1.0,1.0,94,0.00,,,0.00,VWS V14.01,2013-02-23 12:17:00,
2013-02-23 07:22:00,25.4,23.9,29.76,SSE,159,0.0,1.0,94,0.00,,,0.00,VWS V14.01,2013-02-23 12:22:00,
2013-02-23 07:27:00,25.4,23.9,29.76,SSE,159,1.0,2.0,94,0.00,,,0.00,VWS V14.01,2013-02-23 12:27:00,
2013-02-23 07:32:00,25.4,23.9,29.76,SSE,159,1.0,1.0,94,0.00,,,0.00,VWS V14.01,2013-02-23 12:32:00,
2013-02-23 07:37:00,25.4,23.9,29.76,SSE,159,1.0,2.0,94,0.00,,,0.00,VWS V14.01,2013-02-23 12:37:00,
2013-02-23 07:42:00,25.3,23.8,29.76,SSE,159,1.0,1.0,94,0.00,,,0.00,VWS V14.01,2013-02-23 12:42:00,
2013-02-23 07:47:00,25.3,23.8,29.76,SSE,159,1.0,1.0,94,0.00,,,0.00,VWS V14.01,2013-02-23 12:47:00,
2013-02-23 07:52:00,25.2,23.7,29.76,SSE,159,1.0,1.0,94,0.00,,,0.00,VWS V14.01,2013-02-23 12:52:00,
2013-02-23 07:57:00,25.3,23.8,29.77,SSE,159,0.0,1.0,94,0.00,,,0.00,VWS V14.01,2013-02-23 12:57:00,
2013-02-23 08:02:00,25.2,23.7,29.77,SSE,159,1.0,2.0,94,0.00,,,0.00,VWS V14.01,2013-02-23 13:02:00,
2013-02-23 08:07:00,25.1,23.6,29.77,SSE,159,1.0,1.0,94,0.00,,,0.00,VWS V14.01,2013-02-23 13:07:00,
2013-02-23 08:12:00,25.2,23.7,29.77,SSE,159,1.0,1.0,94,0.00,,,0.00,VWS V14.01,2013-02-23 13:12:00,
2013-02-23 08:17:00,25.0,23.5,29.77,SSE,159,1.0,1.0,94,0.00,,,0.00,VWS V14.01,2013-02-23 13:17:00,
2013-02-23 08:22:00,25.1,23.6,29.76,SSE,159,1.0,1.0,94,0.00,,,0.00,VWS V14.01,2013-02-23 13:22:00,
2013-02-23 08:27:00,25.5,24.0,29.76,SSE,159,1.0,2.0,94,0.00,,,0.00,VWS V14.01,2013-02-23 13:27:00,
2013-02-23 08:32:00,25.8,24.3,29.76,SSE,159,1.0,2.0,94,0.00,,,0.00,VWS V14.01,2013-02-23 13:32:00,
2013-02-23 08:37:00,26.0,24.5,29.76,SSE,159,1.0,2.0,94,0.00,,,0.00,VWS V14.01,2013-02-23 13:37:00,
2013-02-23 08:42:00,26.3,24.8,29.77,SSE,159,1.0,1.0,94,0.00,,,0.00,VWS V14.01,2013-02-23 13:42:00,
2013-02-23 08:47:00,26.7,25.2,29.77,SSE,159,0.0,0.0,94,0.00,,,0.00,VWS V14.01,2013-02-23 13:47:00,
2013-02-23 08:52:00,26.9,25.4,29.76,SSE,159,0.0,0.0,94,0.00,,,0.00,VWS V14.01,2013-02-23 13:52:00,
2013-02-23 08:57:00,27.2,25.5,29.76,SSE,159,1.0,1.0,93,0.00,,,0.00,VWS V14.01,2013-02-23 13:57:00,
2013-02-23 09:02:00,27.4,25.6,29.76,SSE,159,0.0,1.0,93,0.00,,,0.00,VWS V14.01,2013-02-23 14:02:00,
2013-02-23 09:07:00,27.6,25.8,29.76,SSE,159,2.0,3.0,93,0.00,,,0.00,VWS V14.01,2013-02-23 14:07:00,
2013-02-23 09:12:00,27.9,26.1,29.76,SSE,159,1.0,2.0,93,0.00,,,0.00,VWS V14.01,2013-02-23 14:12:00,
2013-02-23 09:17:00,28.1,26.1,29.76,SSE,159,2.0,3.0,92,0.00,,,0.00,VWS V14.01,2013-02-23 14:17:00,
2013-02-23 09:22:00,28.3,26.3,29.76,SSE,159,0.0,1.0,92,0.00,,,0.00,VWS V14.01,2013-02-23 14:22:00,
2013-02-23 09:27:00,28.8,26.8,29.76,SSE,159,0.0,1.0,92,0.00,,,0.00,VWS V14.01,2013-02-23 14:27:00,
2013-02-23 09:32:00,28.9,26.6,29.76,West,262,1.0,2.0,91,0.00,,,0.00,VWS V14.01,2013-02-23 14:32:00,
2013-02-23 09:37:00,29.2,26.9,29.77,WSW,258,3.0,3.0,91,0.00,,,0.00,VWS V14.01,2013-02-23 14:37:00,
2013-02-23 09:42:00,29.3,27.0,29.77,West,276,0.0,1.0,91,0.00,,,0.00,VWS V14.01,2013-02-23 14:42:00,
2013-02-23 09:47:00,29.3,27.0,29.76,West,269,2.0,2.0,91,0.00,,,0.00,VWS V14.01,2013-02-23 14:47:00,
2013-02-23 09:53:00,29.3,27.0,29.76,WSW,248,1.0,2.0,91,0.00,,,0.00,VWS V14.01,2013-02-23 14:53:00,
2013-02-23 09:58:00,29.4,26.8,29.76,WSW,248,0.0,1.0,90,0.00,,,0.00,VWS V14.01,2013-02-23 14:58:00,
2013-02-23 10:03:00,29.7,27.1,29.77,WSW,248,1.0,1.0,90,0.00,,,0.00,VWS V14.01,2013-02-23 15:03:00,
2013-02-23 10:08:00,30.1,27.5,29.77,WSW,248,1.0,1.0,90,0.00,,,0.00,VWS V14.01,2013-02-23 15:08:00,
2013-02-23 10:13:00,30.0,27.2,29.76,West,274,2.0,3.0,89,0.00,,,0.00,VWS V14.01,2013-02-23 15:13:00,
2013-02-23 10:18:00,30.1,27.0,29.77,WSW,250,2.0,3.0,88,0.00,,,0.00,VWS V14.01,2013-02-23 15:18:00,
2013-02-23 10:23:00,30.2,27.4,29.76,SW,217,1.0,4.0,89,0.00,,,0.00,VWS V14.01,2013-02-23 15:23:00,
2013-02-23 10:28:00,30.3,27.2,29.77,SW,229,1.0,2.0,88,0.00,,,0.00,VWS V14.01,2013-02-23 15:28:00,
2013-02-23 10:33:00,30.3,27.5,29.77,SW,231,3.0,4.0,89,0.00,,,0.00,VWS V14.01,2013-02-23 15:33:00,
2013-02-23 10:38:00,30.4,27.3,29.77,WSW,239,2.0,2.0,88,0.00,,,0.00,VWS V14.01,2013-02-23 15:38:00,
2013-02-23 10:43:00,30.5,27.4,29.77,WSW,244,0.0,2.0,88,0.00,,,0.00,VWS V14.01,2013-02-23 15:43:00,
2013-02-23 10:48:00,30.7,27.9,29.77,SW,219,1.0,2.0,89,0.00,,,0.00,VWS V14.01,2013-02-23 15:48:00,
2013-02-23 10:53:00,30.8,28.0,29.77,SW,223,2.0,3.0,89,0.01,,,0.01,VWS V14.01,2013-02-23 15:53:00,
2013-02-23 10:58:00,31.0,28.1,29.77,West,273,6.0,6.0,89,0.01,,,0.01,VWS V14.01,2013-02-23 15:58:00,
2013-02-23 11:03:00,31.0,27.9,29.77,SW,232,3.0,6.0,88,0.02,,,0.02,VWS V14.01,2013-02-23 16:03:00,
2013-02-23 11:08:00,31.0,28.1,29.77,SW,232,2.0,3.0,89,0.02,,,0.02,VWS V14.01,2013-02-23 16:08:00,
2013-02-23 11:13:00,31.0,28.1,29.77,West,266,3.0,4.0,89,0.02,,,0.02,VWS V14.01,2013-02-23 16:13:00,
2013-02-23 11:18:00,31.0,27.9,29.77,West,281,7.0,8.0,88,0.02,,,0.02,VWS V14.01,2013-02-23 16:18:00,
2013-02-23 11:23:00,30.9,28.0,29.77,WNW,291,3.0,6.0,89,0.03,,,0.03,VWS V14.01,2013-02-23 16:23:00,
2013-02-23 11:28:00,30.9,28.0,29.77,WSW,250,5.0,6.0,89,0.03,,,0.03,VWS V14.01,2013-02-23 16:28:00,
2013-02-23 11:33:00,31.0,28.4,29.77,West,261,2.0,3.0,90,0.03,,,0.03,VWS V14.01,2013-02-23 16:33:00,
2013-02-23 11:38:00,31.1,28.0,29.78,West,270,7.0,7.0,88,0.03,,,0.03,VWS V14.01,2013-02-23 16:38:00,
2013-02-23 11:43:00,31.0,28.1,29.78,West,274,2.0,3.0,89,0.03,,,0.03,VWS V14.01,2013-02-23 16:43:00,
2013-02-23 11:48:00,31.1,28.0,29.78,WSW,254,6.0,7.0,88,0.03,,,0.03,VWS V14.01,2013-02-23 16:48:00,
2013-02-23 11:53:00,31.1,28.0,29.78,WNW,296,4.0,4.0,88,0.04,,,0.04,VWS V14.01,2013-02-23 16:53:00,
2013-02-23 11:58:00,31.7,28.0,29.78,SW,220,2.0,6.0,86,0.04,,,0.04,VWS V14.01,2013-02-23 16:58:00,
2013-02-23 12:03:00,31.5,27.8,29.78,WSW,237,4.0,5.0,86,0.03,,,0.04,VWS V14.01,2013-02-23 17:03:00,
2013-02-23 12:08:00,31.2,27.5,29.78,West,265,3.0,5.0,86,0.03,,,0.04,VWS V14.01,2013-02-23 17:08:00,
2013-02-23 12:13:00,31.7,28.3,29.78,WNW,286,1.0,2.0,87,0.04,,,0.05,VWS V14.01,2013-02-23 17:13:00,
2013-02-23 12:18:00,31.7,27.7,29.78,WNW,295,4.0,7.0,85,0.04,,,0.05,VWS V14.01,2013-02-23 17:18:00,
2013-02-23 12:23:00,31.3,27.6,29.78,NW,317,6.0,6.0,86,0.04,,,0.05,VWS V14.01,2013-02-23 17:23:00,
2013-02-23 12:28:00,31.2,27.8,29.78,WNW,296,5.0,6.0,87,0.04,,,0.05,VWS V14.01,2013-02-23 17:28:00,
2013-02-23 12:33:00,31.4,28.3,29.78,West,273,2.0,4.0,88,0.03,,OVC050,0.06,VWS V14.01,2013-02-23 17:33:00,
2013-02-23 12:38:00,31.9,27.9,29.78,WSW,246,5.0,9.0,85,0.03,,OVC050,0.06,VWS V14.01,2013-02-23 17:38:00,
2013-02-23 12:43:00,31.6,27.6,29.78,WSW,243,4.0,5.0,85,0.03,,OVC050,0.06,VWS V14.01,2013-02-23 17:43:00,
2013-02-23 12:48:00,31.5,27.2,29.78,WSW,248,3.0,3.0,84,0.03,,OVC050,0.06,VWS V14.01,2013-02-23 17:48:00,
2013-02-23 12:53:00,31.5,28.1,29.78,West,277,4.0,4.0,87,0.03,,OVC050,0.06,VWS V14.01,2013-02-23 17:53:00,
2013-02-23 12:58:00,31.4,27.7,29.78,WNW,287,3.0,4.0,86,0.03,,OVC050,0.06,VWS V14.01,2013-02-23 17:58:00,
2013-02-23 13:04:00,31.3,27.6,29.78,SW,214,4.0,4.0,86,0.03,,OVC032,0.07,VWS V14.01,2013-02-23 18:04:00,
2013-02-23 13:09:00,31.0,27.3,29.78,NW,325,3.0,7.0,86,0.03,,OVC032,0.07,VWS V14.01,2013-02-23 18:09:00,
2013-02-23 13:14:00,30.7,27.3,29.77,WSW,254,2.0,5.0,87,0.03,,OVC032,0.07,VWS V14.01,2013-02-23 18:14:00,
2013-02-23 13:19:00,31.2,27.8,29.77,WSW,251,3.0,4.0,87,0.03,,OVC032,0.07,VWS V14.01,2013-02-23 18:19:00,
2013-02-23 13:24:00,31.5,27.2,29.77,West,270,6.0,6.0,84,0.03,,OVC032,0.07,VWS V14.01,2013-02-23 18:24:00,
2013-02-23 13:29:00,31.4,27.1,29.77,SW,234,4.0,7.0,84,0.03,,OVC032,0.07,VWS V14.01,2013-02-23 18:29:00,
2013-02-23 13:34:00,31.3,26.8,29.77,West,273,8.0,8.0,83,0.02,,OVC070,0.07,VWS V14.01,2013-02-23 18:34:00,
2013-02-23 13:39:00,31.4,26.8,29.77,WNW,297,4.0,6.0,83,0.02,,OVC070,0.07,VWS V14.01,2013-02-23 18:39:00,
2013-02-23 13:44:00,31.5,26.9,29.77,NW,313,2.0,4.0,83,0.02,,OVC070,0.07,VWS V14.01,2013-02-23 18:44:00,
2013-02-23 13:49:00,31.5,26.6,29.77,WSW,250,5.0,8.0,82,0.02,,OVC070,0.07,VWS V14.01,2013-02-23 18:49:00,
2013-02-23 13:54:00,31.5,26.9,29.77,WSW,248,1.0,3.0,83,0.03,,OVC070,0.08,VWS V14.01,2013-02-23 18:54:00,
2013-02-23 13:59:00,31.4,26.2,29.77,WSW,243,4.0,7.0,81,0.03,,OVC070,0.08,VWS V14.01,2013-02-23 18:59:00,
2013-02-23 14:04:00,31.1,26.0,29.77,WSW,242,8.0,10.0,81,0.02,,OVC043,0.08,VWS V14.01,2013-02-23 19:04:00,
2013-02-23 14:09:00,31.1,26.8,29.78,West,267,3.0,3.0,84,0.02,,OVC043,0.08,VWS V14.01,2013-02-23 19:09:00,
2013-02-23 14:14:00,31.1,26.3,29.78,West,281,5.0,9.0,82,0.02,,OVC043,0.08,VWS V14.01,2013-02-23 19:14:00,
2013-02-23 14:19:00,31.0,26.2,29.78,SW,227,3.0,7.0,82,0.02,,OVC044,0.08,VWS V14.01,2013-02-23 19:19:00,
2013-02-23 14:24:00,30.9,26.4,29.78,WSW,252,6.0,6.0,83,0.02,,OVC044,0.08,VWS V14.01,2013-02-23 19:24:00,
2013-02-23 14:29:00,30.5,26.0,29.78,SW,215,9.0,10.0,83,0.02,,OVC044,0.08,VWS V14.01,2013-02-23 19:29:00,
2013-02-23 14:34:00,30.6,26.6,29.78,NW,315,7.0,8.0,85,0.01,,,0.08,VWS V14.01,2013-02-23 19:34:00,
2013-02-23 14:39:00,30.6,26.6,29.78,West,272,3.0,6.0,85,0.01,,,0.08,VWS V14.01,2013-02-23 19:39:00,
2013-02-23 14:44:00,30.6,27.2,29.78,WSW,255,3.0,4.0,87,0.01,,,0.08,VWS V14.01,2013-02-23 19:44:00,
2013-02-23 14:49:00,30.6,26.9,29.78,WSW,243,6.0,6.0,86,0.01,,,0.08,VWS V14.01,2013-02-23 19:49:00,
2013-02-23 14:54:00,30.6,26.6,29.78,SW,228,4.0,4.0,85,0.01,,,0.08,VWS V14.01,2013-02-23 19:54:00,
2013-02-23 14:59:00,30.7,26.7,29.78,WSW,244,2.0,5.0,85,0.01,,,0.08,VWS V14.01,2013-02-23 19:59:00,
2013-02-23 15:04:00,30.8,27.1,29.78,WSW,250,9.0,10.0,86,0.01,,OVC060,0.09,VWS V14.01,2013-02-23 20:04:00,
2013-02-23 15:09:00,30.6,26.4,29.78,West,260,4.0,5.0,84,0.01,,OVC060,0.09,VWS V14.01,2013-02-23 20:09:00,
2013-02-23 15:14:00,30.6,26.4,29.78,West,275,4.0,7.0,84,0.01,,OVC060,0.09,VWS V14.01,2013-02-23 20:14:00,
2013-02-23 15:19:00,30.6,26.6,29.78,West,272,2.0,5.0,85,0.01,,OVC060,0.09,VWS V14.01,2013-02-23 20:19:00,
2013-02-23 15:24:00,30.5,26.2,29.78,West,270,4.0,9.0,84,0.01,,OVC060,0.09,VWS V14.01,2013-02-23 20:24:00,
2013-02-23 15:29:00,30.4,25.9,29.78,SW,222,10.0,10.0,83,0.01,,OVC060,0.09,VWS V14.01,2013-02-23 20:29:00,
2013-02-23 15:34:00,30.3,25.8,29.78,West,281,4.0,6.0,83,0.01,,,0.09,VWS V14.01,2013-02-23 20:34:00,
2013-02-23 15:39:00,30.4,26.1,29.78,SW,226,6.0,6.0,84,0.01,,,0.09,VWS V14.01,2013-02-23 20:39:00,
2013-02-23 15:44:00,30.3,26.1,29.78,WSW,244,8.0,9.0,84,0.01,,,0.09,VWS V14.01,2013-02-23 20:44:00,
2013-02-23 15:49:00,30.2,26.0,29.78,WSW,255,5.0,8.0,84,0.01,,OVC060,0.09,VWS V14.01,2013-02-23 20:49:00,
2013-02-23 15:54:00,30.2,26.0,29.78,West,259,4.0,5.0,84,0.01,,OVC060,0.09,VWS V14.01,2013-02-23 20:54:00,
2013-02-23 15:59:00,30.3,26.3,29.78,WSW,238,4.0,5.0,85,0.01,,OVC060,0.09,VWS V14.01,2013-02-23 20:59:00,
2013-02-23 16:04:00,30.3,26.1,29.78,West,276,6.0,8.0,84,0.01,,OVC060,0.09,VWS V14.01,2013-02-23 21:04:00,
2013-02-23 16:09:00,30.3,26.3,29.78,West,271,5.0,5.0,85,0.01,,OVC060,0.09,VWS V14.01,2013-02-23 21:09:00,
2013-02-23 16:14:00,30.3,26.3,29.78,WSW,258,4.0,5.0,85,0.01,,OVC060,0.09,VWS V14.01,2013-02-23 21:14:00,
2013-02-23 16:19:00,30.2,26.2,29.79,WSW,250,6.0,7.0,85,0.01,,OVC047,0.09,VWS V14.01,2013-02-23 21:19:00,
2013-02-23 16:24:00,30.1,26.4,29.79,West,263,3.0,3.0,86,0.01,,OVC047,0.09,VWS V14.01,2013-02-23 21:24:00,
2013-02-23 16:29:00,30.1,26.1,29.79,WSW,248,4.0,7.0,85,0.01,,OVC047,0.09,VWS V14.01,2013-02-23 21:29:00,
2013-02-23 16:34:00,30.0,26.3,29.79,NNW,333,3.0,4.0,86,0.00,,OVC047,0.09,VWS V14.01,2013-02-23 21:34:00,
2013-02-23 16:39:00,29.9,26.5,29.78,WNW,299,2.0,5.0,87,0.00,,OVC047,0.09,VWS V14.01,2013-02-23 21:39:00,
2013-02-23 16:44:00,29.8,26.1,29.79,WSW,247,3.0,5.0,86,0.00,,OVC047,0.09,VWS V14.01,2013-02-23 21:44:00,
2013-02-23 16:49:00,29.7,26.3,29.79,WSW,249,1.0,3.0,87,0.00,,OVC047,0.09,VWS V14.01,2013-02-23 21:49:00,
2013-02-23 16:54:00,29.7,26.6,29.79,West,268,3.0,4.0,88,0.00,,OVC047,0.09,VWS V14.01,2013-02-23 21:54:00,
2013-02-23 16:59:00,29.7,26.6,29.79,West,281,3.0,3.0,88,0.00,,OVC047,0.09,VWS V14.01,2013-02-23 21:59:00,
2013-02-23 17:04:00,29.7,26.6,29.79,West,279,4.0,4.0,88,0.00,,,0.09,VWS V14.01,2013-02-23 22:04:00,
2013-02-23 17:09:00,29.7,26.6,29.79,WNW,298,2.0,2.0,88,0.00,,,0.09,VWS V14.01,2013-02-23 22:09:00,
2013-02-23 17:14:00,29.6,26.8,29.79,WNW,286,3.0,4.0,89,0.00,,,0.09,VWS V14.01,2013-02-23 22:14:00,
2013-02-23 17:19:00,29.3,26.7,29.79,West,271,4.0,5.0,90,0.00,,,0.09,VWS V14.01,2013-02-23 22:19:00,
2013-02-23 17:24:00,29.1,26.5,29.79,WNW,291,2.0,3.0,90,0.00,,,0.09,VWS V14.01,2013-02-23 22:24:00,
2013-02-23 17:29:00,29.2,26.6,29.79,WSW,253,4.0,4.0,90,0.00,,,0.09,VWS V14.01,2013-02-23 22:29:00,
2013-02-23 17:34:00,29.2,26.6,29.80,WNW,303,1.0,4.0,90,0.00,,,0.09,VWS V14.01,2013-02-23 22:34:00,
2013-02-23 17:39:00,29.2,26.6,29.80,NNW,347,4.0,5.0,90,0.00,,,0.09,VWS V14.01,2013-02-23 22:39:00,
2013-02-23 17:44:00,28.9,26.6,29.80,NNW,337,4.0,6.0,91,0.00,,,0.09,VWS V14.01,2013-02-23 22:44:00,
2013-02-23 17:49:00,28.7,26.4,29.80,NNW,348,3.0,4.0,91,0.00,,,0.09,VWS V14.01,2013-02-23 22:49:00,
2013-02-23 17:54:00,28.5,26.2,29.80,West,275,2.0,7.0,91,0.00,,,0.09,VWS V14.01,2013-02-23 22:54:00,
2013-02-23 17:59:00,28.4,26.1,29.80,NNW,338,5.0,6.0,91,0.00,,,0.09,VWS V14.01,2013-02-23 22:59:00,
2013-02-23 18:04:00,28.3,26.0,29.80,WNW,300,5.0,6.0,91,0.00,,,0.09,VWS V14.01,2013-02-23 23:04:00,
2013-02-23 18:10:00,28.2,26.2,29.80,WNW,287,2.0,4.0,92,0.00,,,0.09,VWS V14.01,2013-02-23 23:10:00,
2013-02-23 18:15:00,28.0,26.0,29.80,NW,325,4.0,6.0,92,0.00,,,0.09,VWS V14.01,2013-02-23 23:15:00,
2013-02-23 18:20:00,28.0,26.0,29.81,NW,320,0.0,2.0,92,0.00,,,0.09,VWS V14.01,2013-02-23 23:20:00,
2013-02-23 18:25:00,27.8,25.8,29.81,WNW,288,2.0,4.0,92,0.00,,,0.09,VWS V14.01,2013-02-23 23:25:00,
2013-02-23 18:30:00,27.7,25.7,29.81,NNW,329,4.0,4.0,92,0.00,,,0.09,VWS V14.01,2013-02-23 23:30:00,
2013-02-23 18:35:00,27.6,25.6,29.81,NW,316,2.0,2.0,92,0.00,,,0.09,VWS V14.01,2013-02-23 23:35:00,
2013-02-23 18:40:00,27.5,25.5,29.81,NNW,329,2.0,4.0,92,0.00,,,0.09,VWS V14.01,2013-02-23 23:40:00,
2013-02-23 18:45:00,27.3,25.3,29.81,NW,319,2.0,3.0,92,0.00,,,0.09,VWS V14.01,2013-02-23 23:45:00,
2013-02-23 18:50:00,27.2,25.2,29.81,West,280,2.0,3.0,92,0.00,,,0.09,VWS V14.01,2013-02-23 23:50:00,
2013-02-23 18:55:00,27.1,25.1,29.82,NNW,344,3.0,4.0,92,0.00,,,0.09,VWS V14.01,2013-02-23 23:55:00,
2013-02-23 19:00:00,27.0,25.0,29.82,WNW,296,3.0,3.0,92,0.00,,,0.09,VWS V14.01,2013-02-24 00:00:00,
2013-02-23 19:05:00,26.9,25.1,29.82,NW,315,2.0,5.0,93,0.00,,,0.09,VWS V14.01,2013-02-24 00:05:00,
2013-02-23 19:10:00,26.9,25.1,29.82,WNW,294,2.0,4.0,93,0.00,,,0.09,VWS V14.01,2013-02-24 00:10:00,
2013-02-23 19:15:00,26.8,25.0,29.82,NW,308,3.0,3.0,93,0.00,,,0.09,VWS V14.01,2013-02-24 00:15:00,
2013-02-23 19:20:00,26.8,25.0,29.82,NW,321,1.0,2.0,93,0.00,,,0.09,VWS V14.01,2013-02-24 00:20:00,
2013-02-23 19:25:00,26.7,25.0,29.82,NW,319,1.0,1.0,93,0.00,,,0.09,VWS V14.01,2013-02-24 00:25:00,
2013-02-23 19:30:00,26.7,25.0,29.82,NW,319,0.0,1.0,93,0.00,,,0.09,VWS V14.01,2013-02-24 00:30:00,
2013-02-23 19:35:00,26.5,24.8,29.82,NW,319,0.0,1.0,93,0.00,,OVC070,0.09,VWS V14.01,2013-02-24 00:35:00,
2013-02-23 19:40:00,26.2,24.5,29.82,NW,319,0.0,1.0,93,0.00,,OVC070,0.09,VWS V14.01,2013-02-24 00:40:00,
2013-02-23 19:45:00,26.3,24.6,29.83,NW,319,0.0,1.0,93,0.00,,OVC070,0.09,VWS V14.01,2013-02-24 00:45:00,
2013-02-23 19:50:00,26.3,24.6,29.83,NW,319,0.0,1.0,93,0.00,,OVC070,0.09,VWS V14.01,2013-02-24 00:50:00,
2013-02-23 19:55:00,26.3,24.6,29.83,NW,319,0.0,1.0,93,0.00,,OVC070,0.09,VWS V14.01,2013-02-24 00:55:00,
2013-02-23 20:00:00,26.2,24.5,29.83,NW,319,1.0,1.0,93,0.00,,OVC070,0.09,VWS V14.01,2013-02-24 01:00:00,
2013-02-23 20:05:00,25.1,23.1,29.83,NW,319,0.0,1.0,92,0.00,,,0.09,VWS V14.01,2013-02-24 01:05:00,
2013-02-23 20:10:00,24.4,22.7,29.83,NW,319,0.0,1.0,93,0.00,,,0.09,VWS V14.01,2013-02-24 01:10:00,
2013-02-23 20:15:00,24.9,23.7,29.83,NW,319,0.0,1.0,95,0.00,,,0.09,VWS V14.01,2013-02-24 01:15:00,
2013-02-23 20:20:00,24.9,23.7,29.83,NW,319,1.0,1.0,95,0.00,,,0.09,VWS V14.01,2013-02-24 01:20:00,
2013-02-23 20:25:00,24.3,22.8,29.83,NW,319,2.0,2.0,94,0.00,,,0.09,VWS V14.01,2013-02-24 01:25:00,
2013-02-23 20:30:00,24.2,23.0,29.83,NW,321,2.0,2.0,95,0.00,,,0.09,VWS V14.01,2013-02-24 01:30:00,
2013-02-23 20:35:00,24.0,22.8,29.83,NW,321,2.0,2.0,95,0.00,,,0.09,VWS V14.01,2013-02-24 01:35:00,
2013-02-23 20:40:00,23.5,22.3,29.83,NW,321,2.0,2.0,95,0.00,,,0.09,VWS V14.01,2013-02-24 01:40:00,
2013-02-23 20:45:00,23.2,21.7,29.83,NW,321,2.0,2.0,94,0.00,,,0.09,VWS V14.01,2013-02-24 01:45:00,
2013-02-23 20:50:00,22.6,21.1,29.83,NW,321,1.0,1.0,94,0.00,,,0.09,VWS V14.01,2013-02-24 01:50:00,
2013-02-23 20:55:00,22.0,20.5,29.83,NW,321,0.0,1.0,94,0.00,,,0.09,VWS V14.01,2013-02-24 01:55:00,
2013-02-23 21:00:00,21.9,20.7,29.83,NW,321,1.0,2.0,95,0.00,,,0.09,VWS V14.01,2013-02-24 02:00:00,
2013-02-23 21:05:00,21.8,20.6,29.83,NW,321,2.0,3.0,95,0.00,,OVC090,0.09,VWS V14.01,2013-02-24 02:05:00,
2013-02-23 21:10:00,21.5,20.0,29.83,NW,321,1.0,2.0,94,0.00,,OVC090,0.09,VWS V14.01,2013-02-24 02:10:00,
2013-02-23 21:15:00,21.7,20.2,29.83,NW,321,0.0,1.0,94,0.00,,OVC090,0.09,VWS V14.01,2013-02-24 02:15:00,
2013-02-23 21:20:00,21.8,20.6,29.83,NW,321,3.0,3.0,95,0.00,,OVC090,0.09,VWS V14.01,2013-02-24 02:20:00,
2013-02-23 21:25:00,22.1,20.9,29.83,North,2,2.0,3.0,95,0.00,,OVC090,0.09,VWS V14.01,2013-02-24 02:25:00,
2013-02-23 21:30:00,22.2,21.0,29.83,ESE,111,2.0,2.0,95,0.00,,OVC090,0.09,VWS V14.01,2013-02-24 02:30:00,
2013-02-23 21:35:00,22.2,20.7,29.83,ESE,123,2.0,3.0,94,0.00,,OVC090,0.09,VWS V14.01,2013-02-24 02:35:00,
2013-02-23 21:40:00,21.9,20.4,29.84,SE,124,0.0,1.0,94,0.00,,OVC090,0.09,VWS V14.01,2013-02-24 02:40:00,
2013-02-23 21:45:00,20.5,18.3,29.84,ESE,121,0.0,1.0,91,0.00,,OVC090,0.09,VWS V14.01,2013-02-24 02:45:00,
2013-02-23 21:50:00,20.4,18.7,29.84,ESE,121,0.0,1.0,93,0.00,,OVC090,0.09,VWS V14.01,2013-02-24 02:50:00,
2013-02-23 21:55:00,20.7,19.2,29.84,ESE,121,1.0,1.0,94,0.00,,OVC090,0.09,VWS V14.01,2013-02-24 02:55:00,
2013-02-23 22:01:00,20.9,19.5,29.83,ESE,121,2.0,2.0,94,0.00,,OVC090,0.09,VWS V14.01,2013-02-24 03:01:00,
2013-02-23 22:06:00,21.1,19.6,29.83,ESE,114,3.0,4.0,94,0.00,,OVC085,0.09,VWS V14.01,2013-02-24 03:06:00,
2013-02-23 22:11:00,21.3,19.9,29.83,ESE,109,3.0,3.0,94,0.00,,OVC085,0.09,VWS V14.01,2013-02-24 03:11:00,
2013-02-23 22:15:00,20.8,19.1,29.83,ESE,107,0.0,1.0,93,0.00,,OVC085,0.09,VWS V14.01,2013-02-24 03:15:00,
2013-02-23 22:21:00,20.6,18.9,29.83,ESE,107,1.0,1.0,93,0.00,,OVC085,0.09,VWS V14.01,2013-02-24 03:21:00,
2013-02-23 22:26:00,20.9,19.5,29.83,ESE,107,1.0,1.0,94,0.00,,OVC085,0.09,VWS V14.01,2013-02-24 03:26:00,
2013-02-23 22:31:00,21.2,19.8,29.83,ESE,107,1.0,2.0,94,0.00,,OVC085,0.09,VWS V14.01,2013-02-24 03:31:00,
2013-02-23 22:36:00,21.6,20.1,29.83,ESE,107,1.0,2.0,94,0.00,,OVC085,0.09,VWS V14.01,2013-02-24 03:36:00,
2013-02-23 22:41:00,21.8,20.3,29.83,ESE,109,1.0,2.0,94,0.00,,OVC085,0.09,VWS V14.01,2013-02-24 03:41:00,
2013-02-23 22:46:00,22.0,20.5,29.83,ESE,114,2.0,2.0,94,0.00,,OVC085,0.09,VWS V14.01,2013-02-24 03:46:00,
2013-02-23 22:51:00,22.5,21.0,29.83,ESE,117,3.0,3.0,94,0.00,,OVC080,0.09,VWS V14.01,2013-02-24 03:51:00,
2013-02-23 22:56:00,22.6,21.1,29.83,ESE,114,2.0,3.0,94,0.00,,OVC080,0.09,VWS V14.01,2013-02-24 03:56:00,
2013-02-23 23:01:00,22.6,21.1,29.83,ESE,114,1.0,2.0,94,0.00,,OVC080,0.09,VWS V14.01,2013-02-24 04:01:00,
2013-02-23 23:06:00,22.8,21.3,29.83,ESE,117,2.0,2.0,94,0.00,,OVC080,0.09,VWS V14.01,2013-02-24 04:06:00,
2013-02-23 23:11:00,22.7,21.2,29.83,ESE,120,1.0,3.0,94,0.00,,OVC080,0.09,VWS V14.01,2013-02-24 04:11:00,
2013-02-23 23:16:00,22.7,21.2,29.83,ESE,118,2.0,3.0,94,0.00,,OVC080,0.09,VWS V14.01,2013-02-24 04:16:00,
2013-02-23 23:21:00,22.9,21.4,29.83,ESE,117,2.0,3.0,94,0.00,,OVC039,0.09,VWS V14.01,2013-02-24 04:21:00,
2013-02-23 23:26:00,23.2,21.7,29.83,ESE,117,2.0,2.0,94,0.00,,OVC039,0.09,VWS V14.01,2013-02-24 04:26:00,
2013-02-23 23:31:00,23.3,21.8,29.83,ESE,113,2.0,3.0,94,0.00,,OVC039,0.09,VWS V14.01,2013-02-24 04:31:00,
2013-02-23 23:36:00,23.6,22.1,29.83,ESE,111,2.0,3.0,94,0.00,,OVC039,0.09,VWS V14.01,2013-02-24 04:36:00,
2013-02-23 23:41:00,23.9,22.4,29.83,ESE,111,1.0,2.0,94,0.00,,OVC039,0.09,VWS V14.01,2013-02-24 04:41:00,
2013-02-23 23:46:00,23.8,22.3,29.83,ESE,111,1.0,2.0,94,0.00,,OVC039,0.09,VWS V14.01,2013-02-24 04:46:00,
2013-02-23 23:51:00,23.6,22.1,29.83,ESE,111,1.0,2.0,94,0.00,,OVC039,0.09,VWS V14.01,2013-02-24 04:51:00,
2013-02-23 23:56:00,23.6,22.1,29.83,ESE,111,1.0,2.0,94,0.00,,OVC039,0.09,VWS V14.01,2013-02-24 04:56:00,